BCC981 EKCH-EDDK

Flight info

Callsign BCC981
Flight time 1h 1m
Altitude 36000
Route NEXEN T503 GIMRU DCT MICOS DCT LARBU Z189 RUNER T858 KOPAG
Aircraft A320/M-SDE3FGHIRWY/LB1

Departure

Time 2026-04-26 19:24
Airport Copenhagen Kastrup Airport (EKCH)

Arrival

Time 2026-04-26 20:26
Airport Cologne Bonn Airport (EDDK)
Time Latitude Longitude Altitude Speed Heading
2026-04-26 18:33 55.62676 12.64240 23 ft 0 kts 35°
2026-04-26 19:10 55.62672 12.64236 24 ft 3 kts 35°
2026-04-26 19:11 55.62652 12.64210 25 ft 3 kts 34°
2026-04-26 19:11 55.62631 12.64180 25 ft 4 kts 51°
2026-04-26 19:11 55.62618 12.64142 27 ft 2 kts 69°
2026-04-26 19:11 55.62617 12.64139 24 ft 0 kts 69°
2026-04-26 19:16 55.62617 12.64140 24 ft 0 kts 72°
2026-04-26 19:17 55.62613 12.64161 23 ft 2 kts 110°
2026-04-26 19:17 55.62599 12.64202 22 ft 5 kts 122°
2026-04-26 19:17 55.62574 12.64272 22 ft 8 kts 122°
2026-04-26 19:17 55.62531 12.64390 21 ft 14 kts 123°
2026-04-26 19:18 55.62470 12.64553 21 ft 17 kts 122°
2026-04-26 19:18 55.62404 12.64736 22 ft 18 kts 127°
2026-04-26 19:18 55.62332 12.64793 23 ft 10 kts 181°
2026-04-26 19:18 55.62253 12.64795 23 ft 13 kts 182°
2026-04-26 19:19 55.62152 12.64710 24 ft 18 kts 215°
2026-04-26 19:19 55.62043 12.64580 18 ft 14 kts 211°
2026-04-26 19:19 55.62016 12.64550 19 ft 0 kts 213°
2026-04-26 19:20 55.62012 12.64546 19 ft 4 kts 213°
2026-04-26 19:20 55.61954 12.64500 23 ft 11 kts 192°
2026-04-26 19:21 55.61865 12.64519 22 ft 15 kts 170°
2026-04-26 19:21 55.61756 12.64553 23 ft 18 kts 170°
2026-04-26 19:21 55.61635 12.64520 25 ft 18 kts 208°
2026-04-26 19:21 55.61520 12.64388 23 ft 21 kts 214°
2026-04-26 19:22 55.61390 12.64240 22 ft 25 kts 213°
2026-04-26 19:22 55.61239 12.64065 18 ft 28 kts 213°
2026-04-26 19:22 55.61075 12.63876 21 ft 29 kts 213°
2026-04-26 19:22 55.60906 12.63682 21 ft 27 kts 213°
2026-04-26 19:23 55.60770 12.63640 22 ft 20 kts 135°
2026-04-26 19:23 55.60708 12.63750 22 ft 10 kts 132°
2026-04-26 19:23 55.60689 12.63871 26 ft 11 kts 72°
2026-04-26 19:23 55.60765 12.64012 26 ft 22 kts 41°
2026-04-26 19:24 55.61005 12.64381 18 ft 79 kts 41°
2026-04-26 19:24 55.61567 12.65245 17 ft 133 kts 42°
2026-04-26 19:24 55.63162 12.67806 740 ft 160 kts 42°
2026-04-26 19:25 55.64017 12.69116 1311 ft 165 kts 39°
2026-04-26 19:25 55.64301 12.69542 1497 ft 165 kts 39°
2026-04-26 19:25 55.65747 12.71734 2471 ft 164 kts 38°
2026-04-26 19:25 55.66629 12.73040 2978 ft 165 kts 37°
2026-04-26 19:26 55.67380 12.74662 3286 ft 184 kts 69°
2026-04-26 19:26 55.67421 12.77038 3528 ft 207 kts 109°
2026-04-26 19:26 55.66581 12.79213 3732 ft 227 kts 144°
2026-04-26 19:26 55.65179 12.80776 4049 ft 250 kts 154°
2026-04-26 19:27 55.63573 12.82266 4523 ft 269 kts 155°
2026-04-26 19:27 55.61877 12.83793 5308 ft 277 kts 155°
2026-04-26 19:27 55.60138 12.85340 6140 ft 283 kts 155°
2026-04-26 19:27 55.58359 12.86896 6938 ft 288 kts 158°
2026-04-26 19:28 55.56426 12.87786 7667 ft 289 kts 181°
2026-04-26 19:28 55.54458 12.87265 8397 ft 287 kts 206°
2026-04-26 19:28 55.52786 12.85428 9147 ft 282 kts 227°
2026-04-26 19:28 55.51318 12.83089 9924 ft 286 kts 227°
2026-04-26 19:29 55.49828 12.80713 10563 ft 295 kts 228°
2026-04-26 19:29 55.48241 12.78185 10756 ft 319 kts 227°
2026-04-26 19:29 55.46558 12.75509 10892 ft 342 kts 227°
2026-04-26 19:29 55.44732 12.72627 11042 ft 362 kts 226°
2026-04-26 19:30 55.42825 12.69639 11520 ft 370 kts 226°
2026-04-26 19:30 55.40884 12.66617 12121 ft 374 kts 226°
2026-04-26 19:30 55.38922 12.63572 12735 ft 378 kts 226°
2026-04-26 19:30 55.37614 12.61541 13150 ft 380 kts 226°
2026-04-26 19:31 55.34949 12.57397 13988 ft 385 kts 227°
2026-04-26 19:31 55.32924 12.54255 14573 ft 389 kts 227°
2026-04-26 19:31 55.30890 12.51103 15148 ft 392 kts 226°
2026-04-26 19:31 55.28842 12.47931 15725 ft 394 kts 226°
2026-04-26 19:32 55.26778 12.44733 16302 ft 397 kts 226°
2026-04-26 19:32 55.24701 12.41513 16880 ft 400 kts 226°
2026-04-26 19:32 55.22610 12.38276 17459 ft 403 kts 226°
2026-04-26 19:32 55.20497 12.35016 18075 ft 406 kts 226°
2026-04-26 19:33 55.18371 12.31743 18648 ft 409 kts 226°
2026-04-26 19:33 55.16222 12.28439 19096 ft 412 kts 226°
2026-04-26 19:33 55.14068 12.25132 19234 ft 412 kts 226°
2026-04-26 19:33 55.11911 12.21830 19279 ft 412 kts 226°
2026-04-26 19:34 55.09751 12.18530 19280 ft 412 kts 226°
2026-04-26 19:34 55.07595 12.15236 19282 ft 412 kts 226°
2026-04-26 19:34 55.05469 12.11985 19282 ft 412 kts 226°
2026-04-26 19:34 55.03303 12.08681 19282 ft 412 kts 226°
2026-04-26 19:35 55.01146 12.05395 19312 ft 414 kts 226°
2026-04-26 19:35 54.98970 12.02081 19818 ft 416 kts 226°
2026-04-26 19:35 54.96778 11.98749 20330 ft 419 kts 226°
2026-04-26 19:35 54.94572 11.95401 20817 ft 422 kts 226°
2026-04-26 19:36 54.92356 11.92044 21263 ft 424 kts 226°
2026-04-26 19:36 54.91602 11.90901 21412 ft 425 kts 226°
2026-04-26 19:36 54.88633 11.86415 21970 ft 429 kts 226°
2026-04-26 19:36 54.86371 11.83007 22375 ft 431 kts 226°
2026-04-26 19:37 54.84095 11.79583 22760 ft 434 kts 226°
2026-04-26 19:37 54.81808 11.76147 23152 ft 436 kts 226°
2026-04-26 19:37 54.79503 11.72693 23535 ft 439 kts 226°
2026-04-26 19:37 54.77187 11.69229 23891 ft 441 kts 226°
2026-04-26 19:38 54.74856 11.65746 24204 ft 443 kts 226°
2026-04-26 19:38 54.72514 11.62255 24518 ft 445 kts 225°
2026-04-26 19:38 54.70163 11.58756 24839 ft 447 kts 225°
2026-04-26 19:38 54.67800 11.55245 25162 ft 449 kts 225°
2026-04-26 19:39 54.65429 11.51727 25479 ft 450 kts 225°
2026-04-26 19:39 54.63049 11.48194 25795 ft 452 kts 225°
2026-04-26 19:39 54.60689 11.44693 26127 ft 452 kts 225°
2026-04-26 19:39 54.58302 11.41154 26584 ft 450 kts 225°
2026-04-26 19:40 54.55904 11.37684 27049 ft 451 kts 221°
2026-04-26 19:40 54.53224 11.34816 27498 ft 454 kts 215°
2026-04-26 19:40 54.50492 11.32108 27964 ft 453 kts 215°
2026-04-26 19:40 54.47761 11.29421 28448 ft 451 kts 214°
2026-04-26 19:41 54.45034 11.26752 28935 ft 450 kts 214°
2026-04-26 19:41 54.42322 11.24103 29412 ft 448 kts 215°
2026-04-26 19:41 54.39616 11.21456 29902 ft 446 kts 215°
2026-04-26 19:41 54.37829 11.19708 30227 ft 445 kts 215°
2026-04-26 19:42 54.34232 11.16202 30794 ft 444 kts 215°
2026-04-26 19:42 54.31552 11.13597 31208 ft 443 kts 215°
2026-04-26 19:42 54.28878 11.10997 31587 ft 442 kts 215°
2026-04-26 19:42 54.26204 11.08400 31975 ft 442 kts 215°
2026-04-26 19:43 54.23529 11.05810 32379 ft 441 kts 215°
2026-04-26 19:43 54.20894 11.03258 32769 ft 441 kts 215°
2026-04-26 19:43 54.18228 11.00677 33164 ft 440 kts 215°
2026-04-26 19:43 54.15565 10.98102 33559 ft 440 kts 215°
2026-04-26 19:44 54.12905 10.95530 33945 ft 440 kts 215°
2026-04-26 19:44 54.10242 10.92962 34319 ft 439 kts 215°
2026-04-26 19:44 54.07579 10.90403 34623 ft 439 kts 215°
2026-04-26 19:44 54.04916 10.87850 34919 ft 440 kts 215°
2026-04-26 19:45 54.02249 10.85296 35200 ft 440 kts 215°
2026-04-26 19:45 53.99574 10.82737 35472 ft 440 kts 214°
2026-04-26 19:45 53.96903 10.80185 35738 ft 441 kts 214°
2026-04-26 19:45 53.94229 10.77636 36016 ft 441 kts 214°
2026-04-26 19:46 53.91555 10.75088 36235 ft 442 kts 214°
2026-04-26 19:46 53.88866 10.72528 36297 ft 445 kts 214°
2026-04-26 19:46 53.83392 10.67315 36301 ft 455 kts 214°
2026-04-26 19:47 53.78783 10.62954 36300 ft 457 kts 214°
2026-04-26 19:47 53.72289 10.56839 36302 ft 457 kts 214°
2026-04-26 19:48 53.66717 10.51604 36298 ft 458 kts 214°
2026-04-26 19:48 53.61218 10.46443 36300 ft 458 kts 214°
2026-04-26 19:49 53.55682 10.41256 36297 ft 458 kts 214°
2026-04-26 19:49 53.50103 10.36055 36300 ft 459 kts 214°
2026-04-26 19:50 53.44516 10.30876 36303 ft 459 kts 214°
2026-04-26 19:50 53.38927 10.25698 36299 ft 459 kts 214°
2026-04-26 19:51 53.33341 10.20531 36307 ft 459 kts 214°
2026-04-26 19:51 53.27723 10.15353 36297 ft 467 kts 216°
2026-04-26 19:52 53.21999 10.10096 36296 ft 470 kts 216°
2026-04-26 19:52 53.16257 10.04843 36295 ft 470 kts 215°
2026-04-26 19:53 53.10516 9.99623 36299 ft 470 kts 215°
2026-04-26 19:53 53.04791 9.94422 36296 ft 469 kts 215°
2026-04-26 19:54 52.99069 9.89216 36300 ft 469 kts 215°
2026-04-26 19:54 52.93340 9.84027 36308 ft 469 kts 214°
2026-04-26 19:55 52.87647 9.78906 36313 ft 468 kts 214°
2026-04-26 19:55 52.81883 9.73742 36320 ft 467 kts 214°
2026-04-26 19:56 52.76212 9.68662 36322 ft 466 kts 214°
2026-04-26 19:56 52.70516 9.63560 36319 ft 466 kts 214°
2026-04-26 19:57 52.64823 9.58474 36316 ft 465 kts 214°
2026-04-26 19:57 52.59135 9.53413 36309 ft 465 kts 214°
2026-04-26 19:58 52.53439 9.48390 36303 ft 464 kts 213°
2026-04-26 19:58 52.47737 9.43365 36300 ft 464 kts 213°
2026-04-26 19:59 52.42047 9.38362 36289 ft 465 kts 213°
2026-04-26 19:59 52.36340 9.33361 36252 ft 464 kts 213°
2026-04-26 20:00 52.33498 9.30873 35641 ft 464 kts 213°
2026-04-26 20:00 52.30693 9.28412 34942 ft 465 kts 213°
2026-04-26 20:00 52.27841 9.25912 34227 ft 466 kts 213°
2026-04-26 20:00 52.24977 9.23412 33404 ft 467 kts 213°
2026-04-26 20:01 52.22111 9.20912 32615 ft 468 kts 213°
2026-04-26 20:01 52.19234 9.18406 31819 ft 468 kts 213°
2026-04-26 20:01 52.16358 9.15910 31016 ft 468 kts 213°
2026-04-26 20:01 52.13482 9.13421 30165 ft 469 kts 213°
2026-04-26 20:02 52.10596 9.10926 29160 ft 470 kts 212°
2026-04-26 20:02 52.07703 9.08433 28101 ft 472 kts 212°
2026-04-26 20:02 52.04792 9.05931 27004 ft 475 kts 212°
2026-04-26 20:02 52.02819 9.04235 26442 ft 473 kts 212°
2026-04-26 20:03 51.98993 9.00945 25572 ft 468 kts 212°
2026-04-26 20:03 51.96105 8.98462 25340 ft 468 kts 212°
2026-04-26 20:03 51.93253 8.96020 25277 ft 455 kts 212°
2026-04-26 20:03 51.90497 8.93672 25309 ft 448 kts 212°
2026-04-26 20:04 51.87708 8.91274 25308 ft 460 kts 212°
2026-04-26 20:04 51.84865 8.88825 25301 ft 466 kts 212°
2026-04-26 20:04 51.81990 8.86365 25302 ft 467 kts 212°
2026-04-26 20:04 51.79130 8.83933 24829 ft 462 kts 211°
2026-04-26 20:05 51.76293 8.81534 24108 ft 458 kts 211°
2026-04-26 20:05 51.73478 8.79154 23349 ft 454 kts 211°
2026-04-26 20:05 51.70709 8.76813 22985 ft 444 kts 211°
2026-04-26 20:05 51.67971 8.74493 22396 ft 446 kts 212°
2026-04-26 20:06 51.65254 8.72187 22258 ft 447 kts 211°
2026-04-26 20:06 51.62458 8.69823 22303 ft 449 kts 211°
2026-04-26 20:06 51.59698 8.67479 22298 ft 448 kts 212°
2026-04-26 20:06 51.56996 8.65106 22297 ft 448 kts 213°
2026-04-26 20:07 51.54286 8.62659 22301 ft 447 kts 213°
2026-04-26 20:07 51.51580 8.60182 22299 ft 447 kts 213°
2026-04-26 20:07 51.48878 8.57710 22303 ft 447 kts 213°
2026-04-26 20:07 51.46174 8.55257 22307 ft 447 kts 213°
2026-04-26 20:08 51.43461 8.52810 22304 ft 447 kts 213°
2026-04-26 20:08 51.40746 8.50377 22204 ft 445 kts 213°
2026-04-26 20:08 51.38062 8.47990 21495 ft 440 kts 212°
2026-04-26 20:08 51.35393 8.45632 20777 ft 436 kts 212°
2026-04-26 20:09 51.32752 8.43305 20091 ft 432 kts 212°
2026-04-26 20:09 51.30147 8.40967 19457 ft 426 kts 216°
2026-04-26 20:09 51.27862 8.38059 18862 ft 415 kts 229°
2026-04-26 20:09 51.26097 8.34484 18234 ft 406 kts 242°
2026-04-26 20:10 51.24686 8.30606 17590 ft 402 kts 244°
2026-04-26 20:10 51.23288 8.26762 16998 ft 399 kts 243°
2026-04-26 20:10 51.21899 8.22954 16423 ft 395 kts 243°
2026-04-26 20:10 51.20520 8.19179 15848 ft 392 kts 243°
2026-04-26 20:11 51.19150 8.15438 15284 ft 389 kts 243°
2026-04-26 20:11 51.17790 8.11731 14694 ft 386 kts 243°
2026-04-26 20:11 51.16457 8.08103 14113 ft 383 kts 243°
2026-04-26 20:12 51.13789 8.00833 12825 ft 376 kts 243°
2026-04-26 20:12 51.12472 7.97253 12169 ft 373 kts 243°
2026-04-26 20:12 51.11165 7.93701 11554 ft 370 kts 243°
2026-04-26 20:12 51.09893 7.90252 11409 ft 354 kts 243°
2026-04-26 20:13 51.08671 7.86950 11289 ft 339 kts 243°
2026-04-26 20:13 51.07468 7.83817 11158 ft 327 kts 237°
2026-04-26 20:13 51.05945 7.81193 11037 ft 320 kts 223°
2026-04-26 20:13 51.04097 7.79306 10911 ft 313 kts 208°
2026-04-26 20:14 51.02136 7.77920 10769 ft 304 kts 207°
2026-04-26 20:14 51.00215 7.76570 10511 ft 300 kts 207°
2026-04-26 20:14 50.98311 7.75222 10189 ft 299 kts 207°
2026-04-26 20:14 50.96423 7.73881 9852 ft 297 kts 207°
2026-04-26 20:15 50.94535 7.72541 9512 ft 296 kts 207°
2026-04-26 20:15 50.92660 7.71215 9186 ft 295 kts 207°
2026-04-26 20:15 50.90806 7.69907 9010 ft 288 kts 207°
2026-04-26 20:15 50.89001 7.68634 8882 ft 280 kts 207°
2026-04-26 20:16 50.87284 7.67424 8724 ft 267 kts 207°
2026-04-26 20:16 50.85623 7.66252 8578 ft 261 kts 207°
2026-04-26 20:16 50.83975 7.65086 8331 ft 258 kts 207°
2026-04-26 20:16 50.82363 7.63946 8051 ft 257 kts 207°
2026-04-26 20:17 50.80734 7.62798 7770 ft 256 kts 207°
2026-04-26 20:17 50.79113 7.61660 7489 ft 255 kts 207°
2026-04-26 20:17 50.77492 7.60528 7201 ft 254 kts 207°
2026-04-26 20:17 50.76401 7.59764 7022 ft 253 kts 207°
2026-04-26 20:18 50.74269 7.58273 6649 ft 252 kts 206°
2026-04-26 20:18 50.72668 7.57153 6351 ft 252 kts 206°
2026-04-26 20:18 50.71086 7.55996 6073 ft 249 kts 213°
2026-04-26 20:18 50.70167 7.54939 5851 ft 245 kts 226°
2026-04-26 20:19 50.69134 7.52857 5589 ft 239 kts 245°
2026-04-26 20:19 50.68573 7.50427 5299 ft 235 kts 260°
2026-04-26 20:19 50.68261 7.47916 4990 ft 232 kts 270°
2026-04-26 20:19 50.68398 7.45412 4685 ft 227 kts 287°
2026-04-26 20:20 50.68856 7.43040 4434 ft 225 kts 289°
2026-04-26 20:20 50.69320 7.40737 4299 ft 216 kts 294°
2026-04-26 20:20 50.70095 7.38793 4169 ft 205 kts 316°
2026-04-26 20:20 50.71117 7.37298 4064 ft 196 kts 319°
2026-04-26 20:21 50.72110 7.35880 3953 ft 190 kts 319°
2026-04-26 20:21 50.73084 7.34486 3684 ft 187 kts 319°
2026-04-26 20:21 50.74041 7.33111 3445 ft 184 kts 319°
2026-04-26 20:21 50.74979 7.31763 3204 ft 180 kts 319°
2026-04-26 20:22 50.75894 7.30449 2955 ft 174 kts 319°
2026-04-26 20:22 50.76769 7.29190 2733 ft 167 kts 318°
2026-04-26 20:22 50.77614 7.27975 2504 ft 161 kts 319°
2026-04-26 20:22 50.78422 7.26812 2292 ft 157 kts 319°
2026-04-26 20:23 50.79212 7.25673 2081 ft 150 kts 319°
2026-04-26 20:23 50.79975 7.24573 1873 ft 147 kts 319°
2026-04-26 20:23 50.80732 7.23483 1682 ft 147 kts 319°
2026-04-26 20:23 50.81488 7.22393 1459 ft 147 kts 319°
2026-04-26 20:24 50.82243 7.21304 1245 ft 147 kts 319°
2026-04-26 20:24 50.83002 7.20208 1025 ft 148 kts 319°
2026-04-26 20:24 50.83756 7.19116 808 ft 149 kts 319°
2026-04-26 20:24 50.84517 7.18005 614 ft 149 kts 319°
2026-04-26 20:25 50.85284 7.16908 417 ft 149 kts 320°
2026-04-26 20:25 50.85800 7.16160 315 ft 148 kts 319°
2026-04-26 20:25 50.86677 7.14894 259 ft 110 kts 317°
2026-04-26 20:25 50.87164 7.14187 257 ft 81 kts 317°
2026-04-26 20:26 50.87543 7.13638 245 ft 70 kts 318°
2026-04-26 20:26 50.87813 7.13248 245 ft 37 kts 317°
2026-04-26 20:26 50.87825 7.12988 238 ft 27 kts 256°
2026-04-26 20:26 50.87789 7.12766 230 ft 20 kts 256°
2026-04-26 20:27 50.87847 7.12613 232 ft 19 kts 347°
2026-04-26 20:27 50.87976 7.12599 230 ft 19 kts 331°